Location: Huntsville
(41.2590°N, 111.7678°W)
Time: 03:28:55
(UTC+00:00)

Vanguard 3 - All Passes

Search period start: 06 October 2022 00:00
Search period end: 16 October 2022 00:00
Orbit: 508 x 3257 km, 33.3° (Epoch: 05 October)

Date Brightness Start Highest point End Pass type
(mag) Time Alt. Az. Time Alt. Az. Time Alt. Az.
06 Oct - 14:07:37 10° S 14:09:18 13° SSE 14:11:07 10° SE daylight
06 Oct - 16:16:05 10° SW 16:19:49 33° S 16:25:08 10° ESE daylight
06 Oct - 18:26:13 10° WSW 18:31:07 34° S 18:38:58 10° SE daylight
06 Oct - 20:37:51 10° WSW 20:43:25 21° SSW 20:51:19 10° SSE daylight
07 Oct - 15:02:42 10° SW 15:05:45 23° SSE 15:09:25 10° ESE daylight
07 Oct - 17:12:30 10° WSW 17:16:36 35° S 17:22:47 10° ESE daylight
07 Oct - 19:23:16 10° WSW 19:28:18 25° SSW 19:35:51 10° SE daylight
07 Oct - 21:38:49 10° SW 21:41:00 11° SSW 21:43:23 10° SSW daylight
08 Oct - 13:49:40 10° SSW 13:51:45 14° SSE 13:53:54 10° SE daylight
08 Oct - 15:58:52 10° WSW 16:02:21 31° S 16:07:01 10° ESE daylight
08 Oct - 18:09:13 10° WSW 18:13:33 28° S 18:20:04 10° SE daylight
08 Oct - 20:21:32 10° SW 20:25:40 15° SSW 20:30:58 10° S daylight
09 Oct - 14:45:16 10° SW 14:48:17 24° SSE 14:51:42 10° ESE daylight
09 Oct - 16:55:24 10° WSW 16:59:07 30° S 17:04:22 10° SE daylight
09 Oct - 19:06:34 10° WSW 19:10:40 19° SSW 19:16:21 10° SSE daylight
10 Oct - 13:31:43 10° SSW 13:34:14 17° SSE 13:36:41 10° ESE daylight
10 Oct - 15:41:37 10° WSW 15:44:55 28° S 15:49:00 10° ESE daylight
10 Oct - 17:52:18 10° WSW 17:56:01 22° SSW 18:01:11 10° SE daylight
10 Oct - 20:06:55 10° SSW 20:07:58 10° SSW 20:09:04 10° SSW daylight
11 Oct - 12:18:41 10° S 12:20:04 11° SSE 12:21:22 10° SE visible
11 Oct - 14:27:46 10° SW 14:30:50 24° S 14:34:05 10° ESE daylight
11 Oct - 16:38:20 10° WSW 16:41:38 25° S 16:46:01 10° SE daylight
11 Oct - 18:50:15 10° SW 18:53:05 14° SSW 18:56:35 10° S daylight
12 Oct - 13:13:45 10° SW 13:16:45 19° S 13:19:29 10° ESE daylight
12 Oct - 15:24:21 10° WSW 15:27:29 26° S 15:31:06 10° SE daylight
12 Oct - 17:35:32 10° SW 17:38:31 17° SSW 17:42:18 10° SSE daylight
13 Oct - 11:59:43 10° SSW 12:02:33 15° SSE 12:04:57 10° SE visible
13 Oct - 14:10:11 10° SW 14:13:24 25° S 14:16:33 10° ESE daylight
13 Oct - 16:21:15 10° WSW 16:24:11 20° S 16:27:44 10° SE daylight
14 Oct - 10:46:05 10° S 10:48:07 12° SSE 10:49:55 10° SE visible
14 Oct - 12:55:44 10° SW 12:59:17 23° S 13:02:18 10° ESE visible
14 Oct - 15:07:00 10° WSW 15:10:02 24° S 15:13:17 10° SE daylight
14 Oct - 17:19:06 10° SW 17:20:59 13° SSW 17:23:08 10° S daylight
15 Oct - 11:41:03 10° SW 11:45:03 20° SSE 11:48:09 10° ESE visible
15 Oct - 13:52:30 10° WSW 13:55:57 26° S 13:59:05 10° ESE daylight
15 Oct - 16:04:14 10° SW 16:06:42 17° SSW 16:09:27 10° SSE daylight
